Winner, SD

5:08 PM CDT on March 28, 2017 (GMT -0500)
Winner

Weather History for KICR - May, 2013

Change the Weather History Date:

Sunday, May 5, 2013

  Actual Average Record
Temperature  
Mean Temperature 47 °F 55 °F  
Max Temperature 63 °F 66 °F 86 °F (2016)
Min Temperature 31 °F 43 °F 31 °F (2013)
Degree Days  
Heating Degree Days 18 11  
Month to date heating degree days 112 57  
Since 1 July heating degree days 6514 6461  
Cooling Degree Days 0 0  
Month to date cooling degree days 0 0  
Year to date cooling degree days 2 2  
Moisture  
Dew Point 30 °F    
Average Humidity 55    
Maximum Humidity 76    
Minimum Humidity 34    
Precipitation  
Precipitation 0.00 in 0.12 in 0.44 in (2012)
Month to date precipitation T 0.61  
Year to date precipitation 1.46 5.24  
Sea Level Pressure  
Sea Level Pressure 30.22 in    
Wind  
Wind Speed 8 mph (NNW)    
Max Wind Speed 17 mph    
Max Gust Speed 25 mph    
Visibility 10 miles    
Events      
T = Trace of Precipitation, MM = Missing Value Source: NWS Daily Summary

Daily Weather History Graph

Daily Weather History Graph

Search for Another Location

Airport or City:

Trip Planner

Search our weather history database for the weather conditions in past years. The results will help you decide how hot, cold, wet, or windy it might be!

Date:

Astronomy

May. 05, 2013 Rise Set
Actual Time 6:26 AM CDT 8:46 PM CDT
Civil Twilight 5:54 AM CDT 9:18 PM CDT
Nautical Twilight 5:15 AM CDT 9:57 PM CDT
Astronomical Twilight 4:31 AM CDT 10:41 PM CDT
Moon 4:05 AM CDT (5/5) 4:41 PM CDT (5/5)
Length of Visible Light 15h 23m
Length of Day
14h 19m
Waning Crescent, 18% of the Moon is Illuminated
May 5
Waning Crescent
May 9
New
May 17
First Quarter
May 24
Full
May 31
Last Quarter

Hourly Weather History & Observations

Time (CDT) Temp. Windchill Dew Point Humidity Pressure Visibility Wind Dir Wind Speed Gust Speed Precip Events Conditions
12:53 AM 41.0 °F 38.0 °F 30.9 °F 67% 30.27 in 10.0 mi NNW 4.6 mph - N/A   Overcast
1:53 AM 41.0 °F 38.0 °F 30.0 °F 65% 30.26 in 10.0 mi NW 4.6 mph - N/A   Mostly Cloudy
2:53 AM 37.9 °F 35.5 °F 30.0 °F 73% 30.26 in 10.0 mi West 3.5 mph - N/A   Overcast
3:53 AM 37.0 °F 31.6 °F 28.0 °F 70% 30.26 in 10.0 mi NW 6.9 mph - N/A   Clear
4:53 AM 34.0 °F 28.0 °F 25.0 °F 70% 30.26 in 10.0 mi NW 6.9 mph - N/A   Clear
5:53 AM 33.1 °F 27.7 °F 24.1 °F 70% 30.27 in 10.0 mi West 5.8 mph - N/A   Partly Cloudy
6:53 AM 30.9 °F 24.3 °F 21.9 °F 69% 30.28 in 10.0 mi West 6.9 mph - N/A   Clear
7:53 AM 36.0 °F 30.3 °F 24.1 °F 62% 30.28 in 10.0 mi West 6.9 mph - N/A   Clear
8:53 AM 42.1 °F 36.6 °F 25.0 °F 51% 30.28 in 10.0 mi NW 9.2 mph - N/A   Clear
9:53 AM 46.9 °F - 28.0 °F 48% 30.28 in 10.0 mi NNW 9.2 mph - N/A   Overcast
10:53 AM 51.1 °F - 26.1 °F 38% 30.26 in 10.0 mi NNW 13.8 mph - N/A   Overcast
11:53 AM 54.0 °F - 28.9 °F 38% 30.25 in 10.0 mi NNW 15.0 mph 25.3 mph N/A   Scattered Clouds
1:53 PM 57.9 °F - 34.0 °F 41% 30.21 in 10.0 mi North 10.4 mph 16.1 mph N/A   Partly Cloudy
2:53 PM 59.0 °F - 34.0 °F 39% 30.19 in 10.0 mi Variable 3.5 mph - N/A   Clear
3:53 PM 60.1 °F - 33.1 °F 36% 30.18 in 10.0 mi Variable 5.8 mph - N/A   Partly Cloudy
4:53 PM 61.0 °F - 33.1 °F 35% 30.16 in 10.0 mi Variable 6.9 mph - N/A   Clear
5:53 PM 62.1 °F - 34.0 °F 35% 30.15 in 10.0 mi NNE 6.9 mph - N/A   Clear
6:53 PM 61.0 °F - 33.1 °F 35% 30.14 in 10.0 mi NNE 10.4 mph - N/A   Clear
7:53 PM 57.0 °F - 35.1 °F 44% 30.14 in 10.0 mi ENE 10.4 mph - N/A   Clear
8:53 PM 50.0 °F - 34.0 °F 54% 30.15 in 10.0 mi East 8.1 mph - N/A   Clear
9:53 PM 46.0 °F 41.9 °F 33.1 °F 61% 30.17 in 10.0 mi SE 8.1 mph - N/A   Clear
10:53 PM 46.0 °F 42.5 °F 33.1 °F 61% 30.16 in 10.0 mi SE 6.9 mph - N/A   Clear
11:53 PM 43.0 °F 38.2 °F 36.0 °F 76% 30.16 in 10.0 mi SE 8.1 mph - N/A   Clear